Date String (YYYY-MM-DD hh:mm:ss) UTC,Instrument flags,absolute air pressure of the measurement (hPa),sample flow rate (lpm),inlet stack bypass flow (lpm),air temperature of the measurement (°C),ambient temperature measured by the external sensor (°C),aerosol sample conditioner tube jacket temperature (°C),OPC LED temperature (°C),internal box temperature (°C),relative humidity of the measurement (%),span deviation,mass concentration of particles derived from Lorenz-Mie calculation of OPC scattering (μg/m³),mass concentration of particles derived from Lorenz-Mie calculation of OPC scattering (μg/m³),mass concentration of particles derived from Lorenz-Mie calculation of OPC scattering (μg/m³)
DateTimeUTC,F1_M11,P_M11,Q1_M11,Q2_M11,T1_M11,T2_M11,T3_M11,T4_M11,T5_M11,U1_M11,ZSPAN_M11,X2_M11,X0_M11,X1_M11
2024-03-25 14:00:00,SystemResetWarning,0818.0,4.99,000.00,018.8,018.3,000.0,027.3,020.6,14.2,0000.0,0006.44,0009.50,0006.24
2024-03-25 14:01:00,SystemResetWarning,0818.0,4.99,000.00,018.8,018.2,000.0,027.3,020.5,14.2,0000.0,0006.36,0009.99,0006.17
2024-03-25 14:02:00,SystemResetWarning,0818.0,5.01,000.00,018.7,018.0,000.0,027.3,020.4,14.3,0000.0,0006.25,0009.88,0006.06
2024-03-25 14:03:00,SystemResetWarning,0818.0,5.02,000.00,018.7,017.9,000.0,027.3,020.3,14.3,0000.0,0006.13,0009.80,0005.96
2024-03-25 14:04:00,SystemResetWarning,0818.0,4.99,000.00,018.6,017.7,000.0,027.3,020.3,14.3,0000.0,0006.04,0009.64,0005.87
2024-03-25 14:05:00,SystemResetWarning,0818.0,4.99,000.00,018.6,017.6,000.0,027.3,020.2,14.4,0000.0,0005.93,0009.46,0005.77
2024-03-25 14:06:00,SystemResetWarning,0818.0,5.00,000.00,018.5,017.5,000.0,027.3,020.2,14.4,0000.0,0005.81,0009.43,0005.67
2024-03-25 14:07:00,SystemResetWarning,0818.0,5.02,000.00,018.5,017.5,000.0,027.2,020.1,14.5,0000.0,0005.70,0008.66,0005.58
2024-03-25 14:08:00,SystemResetWarning,0817.9,4.99,000.00,018.4,017.4,000.0,027.2,020.1,14.5,0000.0,0005.60,0008.51,0005.48
2024-03-25 14:09:00,SystemResetWarning,0818.0,4.99,000.00,018.4,017.3,000.0,027.2,020.0,14.5,0000.0,0005.47,0008.39,0005.35
2024-03-25 14:10:00,SystemResetWarning,0818.0,5.00,000.00,018.3,017.4,000.0,027.2,020.1,14.5,0000.0,0005.33,0008.23,0005.22
2024-03-25 14:11:00,SystemResetWarning,0818.0,5.02,000.00,018.4,018.1,000.0,027.3,020.5,14.5,0000.0,0005.25,0008.08,0005.15
2024-03-25 14:12:00,SystemResetWarning,0818.0,4.98,000.00,018.7,019.0,000.0,027.4,021.1,14.3,0000.0,0005.21,0007.47,0005.11
2024-03-25 14:13:00,SystemResetWarning,0818.0,4.99,000.00,018.8,019.1,000.0,027.3,021.1,14.1,0000.0,0005.21,0007.46,0005.10
2024-03-25 14:14:00,SystemResetWarning,0818.0,5.01,000.00,018.8,018.9,000.0,027.3,020.9,14.1,0000.0,0005.20,0007.44,0005.09
2024-03-25 14:15:00,SystemResetWarning,0818.0,5.01,000.00,018.8,018.6,000.0,027.3,020.7,14.1,0000.0,0005.18,0007.41,0005.07
2024-03-25 14:16:00,SystemResetWarning,0818.0,5.00,000.00,018.8,018.4,000.0,027.3,020.6,14.2,0000.0,0005.16,0007.18,0005.05
2024-03-25 14:17:00,SystemResetWarning,0818.0,5.00,000.00,018.7,018.2,000.0,027.3,020.4,14.2,0000.0,0005.17,0007.12,0005.05
2024-03-25 14:18:00,SystemResetWarning,0818.0,5.00,000.00,018.7,018.1,000.0,027.3,020.4,14.3,0000.0,0005.14,0007.02,0005.04
2024-03-25 14:19:00,SystemResetWarning,0818.0,5.00,000.00,018.6,018.0,000.0,027.3,020.3,14.3,0000.0,0005.14,0007.00,0005.04
2024-03-25 14:20:00,SystemResetWarning,0818.0,4.99,000.00,018.6,017.8,000.0,027.3,020.3,14.4,0000.0,0005.16,0007.04,0005.07
2024-03-25 14:21:00,SystemResetWarning,0818.0,5.00,000.00,018.5,017.7,000.0,027.2,020.2,14.5,0000.0,0005.22,0007.23,0005.12
2024-03-25 14:22:00,SystemResetWarning,0818.0,5.00,000.00,018.5,017.6,000.0,027.2,020.2,14.5,0000.0,0005.27,0007.30,0005.16
2024-03-25 14:23:00,SystemResetWarning,0818.0,5.00,000.00,018.5,017.6,000.0,027.2,020.1,14.5,0000.0,0005.32,0007.36,0005.21
2024-03-25 14:24:00,SystemResetWarning,0818.0,5.00,000.00,018.4,017.5,000.0,027.2,020.1,14.6,0000.0,0005.35,0007.42,0005.24
2024-03-25 14:25:00,SystemResetWarning,0818.0,5.00,000.00,018.4,017.4,000.0,027.2,020.0,14.7,0000.0,0005.38,0007.44,0005.26
2024-03-25 14:26:00,SystemResetWarning,0818.0,4.98,000.00,018.3,017.4,000.0,027.2,020.0,14.7,0000.0,0005.40,0007.48,0005.29
2024-03-25 14:27:00,SystemResetWarning,0818.0,5.01,000.00,018.3,017.7,000.0,027.2,020.2,14.8,0000.0,0005.46,0007.60,0005.32
2024-03-25 14:28:00,SystemResetWarning,0818.0,5.00,000.00,018.5,018.7,000.0,027.3,020.8,14.6,0000.0,0005.47,0008.08,0005.33
2024-03-25 14:29:00,SystemResetWarning,0818.0,4.99,000.00,018.8,019.2,000.0,027.3,021.2,14.4,0000.0,0005.49,0008.21,0005.35
2024-03-25 14:30:00,SystemResetWarning,0818.1,4.99,000.00,018.8,019.1,000.0,027.3,021.0,14.4,0000.0,0005.52,0008.36,0005.38
2024-03-25 14:31:00,SystemResetWarning,0818.1,5.01,000.00,018.8,018.9,000.0,027.3,020.9,14.4,0000.0,0005.54,0008.41,0005.39
2024-03-25 14:32:00,SystemResetWarning,0818.0,5.01,000.00,018.8,018.7,000.0,027.3,020.7,14.4,0000.0,0005.54,0008.36,0005.40
2024-03-25 14:33:00,SystemResetWarning,0818.0,4.99,000.00,018.8,018.5,000.0,027.3,020.6,14.4,0000.0,0005.54,0008.37,0005.39
2024-03-25 14:34:00,SystemResetWarning,0818.0,4.99,000.00,018.7,018.3,000.0,027.3,020.5,14.4,0000.0,0005.54,0008.37,0005.39
2024-03-25 14:35:00,SystemResetWarning,0818.0,5.00,000.00,018.7,018.2,000.0,027.3,020.4,14.5,0000.0,0005.54,0008.35,0005.40
2024-03-25 14:36:00,SystemResetWarning,0818.0,5.01,000.00,018.6,018.0,000.0,027.3,020.4,14.5,0000.0,0005.55,0008.36,0005.41
2024-03-25 14:37:00,SystemResetWarning,0818.0,5.00,000.00,018.6,017.9,000.0,027.3,020.3,14.6,0000.0,0005.60,0008.44,0005.44
2024-03-25 14:38:00,SystemResetWarning,0818.0,5.01,000.00,018.6,017.8,000.0,027.2,020.3,14.6,0000.0,0005.60,0008.48,0005.45
2024-03-25 14:39:00,SystemResetWarning,0818.0,5.01,000.00,018.5,017.7,000.0,027.2,020.2,14.7,0000.0,0005.65,0008.14,0005.47
2024-03-25 14:40:00,SystemResetWarning,0818.0,5.00,000.00,018.5,017.7,000.0,027.2,020.2,14.7,0000.0,0005.68,0008.05,0005.49
2024-03-25 14:41:00,SystemResetWarning,0818.0,4.99,000.00,018.5,017.6,000.0,027.2,020.2,14.8,0000.0,0005.67,0007.93,0005.49
2024-03-25 14:42:00,SystemResetWarning,0818.0,4.99,000.00,018.4,017.5,000.0,027.2,020.1,14.8,0000.0,0005.68,0007.93,0005.49
2024-03-25 14:43:00,SystemResetWarning,0818.0,5.00,000.00,018.4,017.5,000.0,027.2,020.1,14.8,0000.0,0005.69,0007.97,0005.49
2024-03-25 14:44:00,SystemResetWarning,0818.0,5.00,000.00,018.4,017.5,000.0,027.1,020.1,14.8,0000.0,0005.70,0007.97,0005.51
2024-03-25 14:45:00,SystemResetWarning,0818.0,5.00,000.00,018.3,017.4,000.0,027.1,020.0,14.8,0000.0,0005.70,0007.98,0005.50
2024-03-25 14:46:00,SystemResetWarning,0818.0,5.01,000.00,018.3,017.6,000.0,027.2,020.2,14.7,0000.0,0005.67,0007.93,0005.48
2024-03-25 14:47:00,SystemResetWarning,0818.0,5.00,000.00,018.5,018.5,000.0,027.3,020.7,14.6,0000.0,0005.66,0007.94,0005.48
2024-03-25 14:48:00,SystemResetWarning,0818.0,5.00,000.00,018.8,019.2,000.0,027.3,021.2,14.3,0000.0,0005.65,0008.17,0005.47
2024-03-25 14:49:00,SystemResetWarning,0818.0,4.98,000.00,018.8,019.1,000.0,027.3,021.1,14.2,0000.0,0005.63,0008.13,0005.46
2024-03-25 14:50:00,SystemResetWarning,0818.0,4.99,000.00,018.8,018.9,000.0,027.3,020.9,14.2,0000.0,0005.59,0008.02,0005.44
2024-03-25 14:51:00,SystemResetWarning,0818.0,5.02,000.00,018.8,018.7,000.0,027.3,020.7,14.2,0000.0,0005.56,0008.19,0005.41
2024-03-25 14:52:00,SystemResetWarning,0818.0,5.01,000.00,018.8,018.5,000.0,027.3,020.6,14.2,0000.0,0005.54,0008.62,0005.39
2024-03-25 14:53:00,SystemResetWarning,0818.0,4.99,000.00,018.7,018.3,000.0,027.3,020.5,14.1,0000.0,0005.52,0008.74,0005.38
2024-03-25 14:54:00,SystemResetWarning,0818.0,4.99,000.00,018.7,018.1,000.0,027.3,020.4,14.1,0000.0,0005.50,0008.70,0005.36
2024-03-25 14:55:00,SystemResetWarning,0818.0,5.00,000.00,018.6,017.9,000.0,027.2,020.3,14.2,0000.0,0005.48,0008.81,0005.33
2024-03-25 14:56:00,SystemResetWarning,0818.0,5.01,000.00,018.5,017.8,000.0,027.2,020.2,14.2,0000.0,0005.45,0008.81,0005.31
2024-03-25 14:57:00,SystemResetWarning,0818.0,5.01,000.00,018.5,017.7,000.0,027.2,020.1,14.2,0000.0,0005.45,0008.80,0005.32
2024-03-25 14:58:00,SystemResetWarning,0818.0,4.98,000.00,018.4,017.5,000.0,027.2,020.1,14.2,0000.0,0005.42,0008.74,0005.30
2024-03-25 14:59:00,SystemResetWarning,0818.0,4.99,000.00,018.4,017.4,000.0,027.2,020.0,14.2,0000.0,0005.39,0008.72,0005.27
